Probability
0 0 0 0 0 0 0 0 0 0 0 0 0 0 0 0 0 0 0 0 0 0 0 0 0 0 0 0 0 0 0 0 0 0 0 0 0 0 0 0 0 0 0
0 0 0 0 0 0 0 0 0 0 0 0 0 0 0 0 0 0 0 0 0 0 0 0 0 0 0 0 0 0 0 0 0 0 0 0 0 0 0 0 0 0 0
0 0 0 0 0 0 0 0 0 0 0 0 0 0 0 0 0 0 0 0 0 0 0 0 0 0 0 0 0 0 0 0 0 0 0 0 0 0 0 0 0 0 0
0 0 0 0 0 0 0 0 0 0 0 0 0 0 0 0 0 0 0 0 0 0 0 0 0 0 0 0 0 0 0 0 0 0 0 0 0 0 0 0 0 0 0
0 0 0 1 2 2 1 0 0 0 0 0 0 0 0 0 0 0 0 0 0 0 0 0 0 0 0 0 0 0 0 0 0 0 0 0 0 0 0 0 0 0 0
0 0 0 1 5 6 3 1 0 0 0 0 0 0 0 0 0 0 0 0 0 0 0 0 0 0 0 0 0 0 0 0 0 0 0 0 0 0 0 0 0 0 0
0 0 0 1 4 6 4 1 0 0 0 1 1 1 0 0 0 0 0 0 0 0 0 0 0 0 0 0 0 0 0 0 0 0 0 0 0 0 0 0 0 0 0
0 0 0 0 1 2 2 1 0 0 1 3 5 4 1 0 0 0 0 0 0 0 0 0 0 0 0 0 0 0 0 0 0 0 0 0 0 0 0 0 0 0 0
0 0 0 0 0 0 0 0 0 0 1 4 7 6 2 0 0 0 0 0 0 0 0 0 0 0 0 0 0 0 0 0 0 0 0 0 0 0 0 0 0 0 0
0 0 0 0 0 0 0 0 0 0 0 2 3 3 1 0 0 0 0 0 0 0 0 0 0 0 0 0 0 0 0 0 0 0 0 0 0 0 0 0 0 0 0
0 0 0 0 0 0 0 0 0 0 0 0 0 0 0 0 0 0 0 0 0 0 0 0 0 0 0 0 0 0 0 0 0 0 0 0 0 0 0 0 0 0 0
0 0 0 0 0 0 0 0 0 0 0 0 0 0 0 0 0 0 0 0 0 0 0 0 0 0 0 0 0 0 0 0 0 0 0 0 0 0 0 0 0 0 0
0 0 0 0 0 0 0 0 0 0 0 0 0 0 0 0 0 0 0 0 0 0 0 0 0 0 0 0 0 0 0 0 0 0 0 0 0 0 0 0 0 0 0
0 0 0 0 0 0 0 0 0 0 0 0 0 0 0 0 0 0 0 0 0 0 0 0 0 0 0 0 0 0 0 0 0 0 0 0 0 0 0 0 0 0 0
0 0 0 0 0 0 0 0 0 0 0 0 0 0 0 0 0 0 0 0 0 0 0 0 0 0 0 0 0 0 0 0 0 0 0 0 0 0 0 0 0 0 0
0 0 0 0 0 0 0 0 0 0 0 0 0 0 0 0 0 0 0 0 0 0 0 0 0 0 0 0 0 0 0 0 0 0 0 0 0 0 0 0 0 0 0
0 0 0 0 0 0 0 0 0 0 0 0 0 0 0 0 0 0 0 0 0 0 0 0 0 0 0 0 0 0 0 0 0 0 0 0 0 0 0 0 0 0 0
0 0 0 0 0 0 0 0 0 0 0 0 0 0 0 0 0 0 0 0 0 0 0 0 0 0 0 0 0 0 0 0 0 0 0 0 0 0 0 0 0 0 0
0 0 0 0 0 0 0 0 0 0 0 0 0 0 0 0 0 0 0 0 0 0 0 0 0 0 0 0 0 0 0 0 0 0 0 0 0 0 0 0 0 0 0
0 0 0 0 0 0 0 0 0 0 0 0 0 0 0 0 0 0 0 0 0 0 0 0 0 0 0 0 0 0 0 0 0 0 0 0 0 0 0 0 0 0 0
0 0 0 0 0 0 0 0 0 0 0 0 0 0 0 0 0 0 0 0 0 0 0 0 0 0 0 0 0 0 0 0 0 0 0 0 0 0 0 0 0 0 0
0 0 0 0 0 0 0 0 0 0 0 0 0 0 0 0 0 0 0 0 0 0 0 0 0 0 0 0 0 0 0 0 0 0 0 0 0 0 0 0 0 0 0
0 0 0 0 0 0 0 0 0 0 0 0 0 0 0 0 0 0 0 0 0 0 0 0 0 0 0 0 0 0 0 0 0 0 0 0 0 0 0 0 0 0 0
0 0 0 0 0 0 0 0 0 0 0 0 0 0 0 0 0 0 0 0 0 0 0 0 0 0 0 0 0 0 0 0 0 0 0 0 0 0 0 0 0 0 0
0 0 0 0 0 0 0 0 0 0 0 0 0 0 0 0 0 0 0 0 0 0 0 0 0 0 0 0 0 0 0 0 0 0 0 0 0 0 0 0 0 0 0
0 0 0 0 0 0 0 0 0 0 0 0 0 0 0 0 0 0 0 0 0 0 0 0 0 0 0 0 0 0 0 0 0 0 0 0 0 0 0 0 0 0 0
Wind_Speed
6 13 17 15 15 14 13 12 11 11 12 11 11 10 9 8 8 9 11 12 12 12 12 11 11 10 10 10 10 10 9 9 9 9 11 12 11 11 12 11 9 8 11
8 14 17 15 15 14 13 12 11 11 11 11 11 10 10 9 9 9 10 11 11 10 9 9 9 8 8 8 8 8 8 7 6 5 6 9 11 11 12 13 11 8 12
9 14 15 14 15 15 13 12 11 11 11 11 11 11 10 10 10 10 10 10 10 8 8 7 7 7 6 7 7 7 7 7 6 6 4 2 7 10 10 11 11 11 12
9 13 13 14 15 15 14 14 13 12 12 11 11 11 11 11 10 9 9 9 9 8 7 7 7 6 6 6 6 6 6 5 6 8 4 3 6 8 9 10 10 11 11
7 11 13 15 15 16 15 15 14 12 12 12 12 13 12 11 10 9 8 7 7 7 7 7 7 6 6 6 6 6 5 5 7 7 4 6 6 7 8 9 9 10 10
6 7 13 16 15 16 16 16 15 13 12 12 13 14 14 12 11 9 7 7 6 6 6 6 6 7 6 6 6 6 6 6 7 3 5 7 5 8 8 8 9 9 9
7 6 12 15 14 14 15 16 15 14 13 12 13 14 14 13 11 9 8 7 6 5 5 6 6 6 6 6 6 6 6 9 4 5 6 6 6 8 7 7 8 8 8
7 7 10 13 12 12 13 14 13 13 13 13 14 15 14 13 12 10 8 8 7 6 6 6 6 6 6 6 6 6 6 7 4 4 6 6 7 6 6 5 6 7 7
7 7 7 10 11 11 11 12 12 12 12 13 14 14 13 12 12 10 9 9 8 7 7 7 7 6 6 6 6 5 6 7 4 3 6 5 5 4 4 3 3 4 5
5 7 6 8 10 10 9 12 13 13 12 12 13 12 12 12 11 10 9 9 9 9 9 8 8 7 7 6 5 4 5 7 4 5 4 5 6 3 3 2 2 2 3
4 6 7 7 9 10 9 12 12 12 12 12 11 12 11 6 6 7 8 10 10 10 10 10 9 8 7 5 3 1 4 2 4 4 4 6 5 3 2 2 1 2 3
8 7 6 7 7 8 8 7 7 7 8 8 7 8 6 5 5 7 9 11 10 10 11 11 10 9 6 3 3 2 0 1 2 3 3 6 5 2 1 1 2 2 3
9 10 9 8 8 7 5 5 5 5 5 7 8 9 7 5 4 4 4 5 6 8 5 7 7 3 3 3 3 2 2 2 2 3 3 5 5 2 2 2 3 3 3
7 9 12 10 8 8 6 5 5 4 5 6 7 8 7 4 4 4 4 4 4 3 4 5 3 3 3 3 3 3 2 2 2 2 3 5 5 4 2 4 4 4 4
7 6 9 11 10 8 7 6 6 5 5 5 5 7 7 5 5 4 4 5 5 4 5 5 4 4 4 3 3 4 3 3 2 2 2 4 6 3 2 4 5 6 6
7 7 6 9 10 9 8 6 6 5 5 5 6 7 8 6 6 5 5 5 5 5 5 5 5 5 4 3 3 3 3 4 2 1 3 4 9 10 5 4 5 7 7
2 3 5 5 8 9 8 7 5 5 5 5 5 7 8 7 7 6 5 5 5 6 6 5 5 4 4 3 4 3 3 3 3 1 2 2 4 10 12 10 7 7 7
11 8 3 0 3 6 7 6 5 4 5 4 4 5 8 8 7 6 5 5 5 6 6 5 5 4 4 4 3 3 2 2 2 2 1 2 3 4 7 11 10 8 6
13 12 9 5 1 1 3 4 4 3 4 3 4 4 6 8 7 6 5 5 6 5 5 6 5 5 5 4 4 3 3 2 2 1 2 3 3 4 3 6 9 8 6
12 11 11 9 6 3 1 1 1 1 1 2 3 4 6 6 6 5 4 5 6 5 5 6 6 4 5 5 4 3 2 3 2 2 2 2 2 2 3 3 3 4 4
12 13 13 12 10 6 3 2 1 0 0 0 1 2 4 5 6 5 4 5 5 6 6 7 6 7 5 5 5 2 1 1 2 3 3 3 3 2 3 3 2 2 1
13 13 13 13 12 9 5 3 2 2 2 1 2 2 2 3 4 4 5 4 5 5 6 7 6 6 4 6 6 4 2 2 4 4 3 4 4 3 3 4 3 3 3
13 13 12 14 14 12 10 5 4 4 4 3 2 1 1 2 2 3 4 4 5 6 6 7 8 10 6 6 5 7 7 7 3 3 5 4 4 4 4 4 5 4 4
11 10 11 12 13 13 11 9 7 4 3 3 1 1 2 2 1 2 3 4 5 5 6 7 8 7 7 8 5 4 4 6 6 3 3 4 5 5 5 5 5 5 5
9 9 9 11 13 13 12 11 8 6 5 4 4 3 2 1 2 2 3 3 4 5 6 6 7 8 6 6 6 4 3 2 3 6 4 4 4 5 6 6 5 5 5
8 8 9 11 12 12 12 11 11 9 8 7 6 4 2 1 2 3 4 4 4 4 6 7 7 9 8 7 6 5 6 6 6 5 5 4 5 5 5 5 6 6 5
Wind_Direction
145 144 156 160 160 158 154 151 146 143 141 140 137 133 128 122 115 108 104 100 95 90 87 83 79 74 69 65 62 61 62 62 60 67 84 82 75 67 57 50 68 60 60
143 144 157 160 163 162 159 155 152 152 152 151 149 145 140 136 130 121 112 104 99 94 91 88 85 80 72 66 63 59 54 46 34 29 86 94 84 73 67 62 63 67 64
139 143 160 161 163 163 161 159 159 162 163 162 160 155 147 139 132 124 116 109 104 102 100 99 97 91 82 73 67 61 52 34 2 338 317 142 99 86 78 73 71 70 67
138 146 166 162 165 165 164 164 167 170 172 172 168 161 150 142 135 129 121 117 115 114 112 109 104 96 85 75 68 61 50 26 348 329 323 98 95 93 92 84 79 75 72
144 151 164 162 169 168 169 170 173 177 180 180 174 165 154 147 139 134 130 126 125 123 120 115 109 98 83 71 64 55 37 4 334 321 357 64 75 88 97 95 90 84 78
152 158 159 165 174 173 173 175 179 183 186 187 179 169 160 154 148 145 141 138 134 130 123 117 110 98 85 71 62 50 27 358 330 352 32 61 64 74 89 99 102 97 91
156 163 155 170 178 180 180 181 184 188 192 192 183 173 164 159 156 155 157 155 150 144 132 121 109 99 89 77 65 49 23 351 7 36 40 58 55 68 72 80 90 93 91
160 162 151 175 179 186 187 188 190 193 195 194 185 175 169 165 162 163 167 167 164 157 148 134 120 108 95 82 68 51 23 1 12 48 63 54 42 71 68 63 72 81 85
163 159 157 174 186 191 194 194 195 199 201 195 184 175 170 169 168 167 169 173 172 168 158 143 134 122 105 88 70 46 17 358 35 36 69 52 25 72 75 59 57 76 85
175 165 181 175 187 193 196 200 199 199 199 192 183 174 168 169 169 168 169 174 177 173 161 151 144 134 116 98 79 44 2 348 37 45 58 39 28 60 72 59 51 68 85
212 183 188 194 189 191 192 197 197 197 194 186 179 171 163 165 164 163 174 175 178 170 161 159 153 136 124 115 110 40 343 28 48 59 54 24 22 43 67 63 72 89 97
212 208 199 206 201 192 192 185 188 191 189 186 175 168 172 175 173 170 183 175 174 161 161 164 155 144 149 152 172 204 272 60 73 84 66 26 12 14 93 105 111 111 108
207 198 200 204 203 197 191 181 179 184 183 190 187 173 175 179 167 158 147 159 160 151 150 149 141 173 194 149 163 136 82 60 70 80 72 29 5 341 166 151 137 123 118
227 202 192 195 198 199 195 192 184 182 186 188 191 177 170 173 168 158 150 159 158 156 152 142 156 179 151 124 111 108 90 66 63 74 77 26 1 336 189 154 145 136 132
227 226 191 188 195 195 197 197 195 194 190 189 183 181 174 173 172 166 165 165 167 163 158 149 159 159 154 156 147 129 107 86 75 74 95 38 15 356 172 156 149 139 125
219 220 210 189 190 191 196 201 200 199 192 189 187 186 182 176 169 169 175 171 168 161 152 149 159 157 162 152 141 125 121 114 98 74 120 77 49 44 56 125 138 132 122
318 224 207 204 187 190 197 200 201 198 192 192 189 187 187 183 173 170 174 174 167 152 146 147 153 149 151 151 143 130 114 109 125 110 97 113 77 54 54 65 84 108 115
13 10 357 127 184 192 194 196 199 197 195 191 183 185 189 188 178 170 172 175 165 150 148 155 155 152 158 155 148 146 127 112 126 141 117 90 93 84 64 66 65 76 89
16 11 8 11 23 224 199 189 192 195 197 187 178 178 182 185 183 171 172 171 162 153 156 164 160 155 159 157 144 138 137 141 147 171 139 103 86 96 101 82 70 61 66
17 15 14 13 16 23 44 128 152 200 203 180 168 169 168 175 180 169 166 170 162 157 167 169 166 167 150 146 124 114 131 141 162 185 160 118 111 116 126 125 99 69 63
21 20 19 17 12 20 40 60 77 10 216 109 105 128 152 160 172 172 166 172 167 173 181 174 163 158 146 137 106 92 32 163 200 192 176 157 169 162 145 157 158 140 103
22 21 23 18 14 14 21 45 67 53 48 78 87 83 101 140 169 176 176 177 174 176 187 187 172 160 155 164 140 131 169 274 260 205 192 186 182 174 183 191 178 169 151
23 22 25 20 18 14 15 28 44 42 32 31 44 70 96 127 172 188 192 186 183 185 199 200 190 178 170 191 186 156 161 197 204 219 207 193 185 183 193 191 183 186 163
20 18 27 26 23 18 17 25 34 36 30 12 19 90 127 150 195 227 220 212 197 195 208 212 206 205 171 182 219 220 171 150 152 180 231 211 196 195 193 190 189 192 169
21 21 24 31 29 22 20 23 25 25 19 9 14 28 49 144 212 251 260 246 228 209 212 218 212 215 208 192 192 177 178 188 156 145 184 208 213 210 193 186 184 191 175
24 26 27 32 30 22 23 24 25 20 14 12 5 353 339 271 222 231 252 262 259 241 221 221 217 216 223 220 211 195 170 172 185 166 158 175 201 212 195 184 185 189 185